This demonstration page uses our WeatherBlox Daily Observations layout. Learn more.

Left ArrowRight Arrow

Hourly Observations for May 16, 2017

Temp ( °F °C ) Dew Point ( °F °C ) Humidity (%) Winds ( mph kmh ) Pressure ( in mb ) Visibility ( mi km ) Precip ( " mm )
12:15 am 00:15 Clear 59 15 45 7 59 59 WNW 3 6 30.03 1017 10 16 N/A
12:35 am 00:35 Clear 55 13 45 7 67 67 NW 6 9 30.03 1017 10 16 N/A
12:55 am 00:55 Clear 59 15 46 8 63 63 WNW 3 6 30.03 1017 10 16 N/A
1:15 am 01:15 Clear 54 12 46 8 77 77 W 6 9 30.03 1017 10 16 N/A
1:35 am 01:35 Clear 55 13 45 7 67 67 WNW 3 6 30.03 1017 10 16 N/A
1:55 am 01:55 Clear 57 14 45 7 63 63 N N/A 30.03 1017 10 16 N/A
2:15 am 02:15 Clear 54 12 46 8 77 77 N N/A 30.03 1017 10 16 N/A
2:35 am 02:35 Clear 54 12 46 8 77 77 NNW 3 6 30.03 1017 10 16 N/A
2:55 am 02:55 Clear 52 11 46 8 82 82 N 5 7 30.03 1017 10 16 N/A
3:15 am 03:15 Clear 50 10 46 8 88 88 NW 3 6 30.09 1019 10 16 N/A
3:35 am 03:35 Clear 52 11 46 8 82 82 N N/A 30.06 1018 10 16 N/A
3:55 am 03:55 Clear 50 10 46 8 88 88 WSW 3 6 30.09 1019 10 16 N/A
4:15 am 04:15 Clear 50 10 46 8 88 88 W 5 7 30.09 1019 10 16 N/A
4:35 am 04:35 Clear 50 10 46 8 88 88 N N/A 30.09 1019 10 16 N/A
4:55 am 04:55 Clear 50 10 46 8 88 88 N N/A 30.09 1019 10 16 N/A
5:15 am 05:15 Clear 50 10 46 8 88 88 N N/A 30.09 1019 10 16 N/A
5:35 am 05:35 Clear 48 9 45 7 87 87 N N/A 30.09 1019 10 16 N/A
5:55 am 05:55 Clear 46 8 46 8 100 100 NW 3 6 30.09 1019 10 16 N/A
6:15 am 06:15 Sunny 48 9 46 8 94 94 W 3 6 30.12 1020 10 16 N/A
6:35 am 06:35 Sunny 52 11 46 8 82 82 N N/A 30.09 1019 10 16 N/A
6:55 am 06:55 Sunny 52 11 48 9 88 88 N N/A 30.09 1019 10 16 N/A
7:15 am 07:15 Sunny 54 12 50 10 88 88 N N/A 30.09 1019 10 16 N/A
7:35 am 07:35 Sunny 55 13 50 10 82 82 N N/A 30.09 1019 10 16 N/A
7:55 am 07:55 Sunny 61 16 52 11 72 72 N N/A 30.09 1019 10 16 N/A
8:15 am 08:15 Sunny 63 17 50 10 64 64 N N/A 30.09 1019 10 16 N/A
8:35 am 08:35 Sunny 64 18 52 11 64 64 N N/A 30.12 1020 10 16 N/A
8:55 am 08:55 Sunny 66 19 50 10 56 56 WNW 3 6 30.12 1020 10 16 N/A
9:15 am 09:15 Sunny 68 20 50 10 53 53 WNW 3 6 30.12 1020 10 16 N/A
9:35 am 09:35 Sunny 70 21 50 10 50 50 W 3 6 30.12 1020 10 16 N/A
9:55 am 09:55 Sunny 70 21 48 9 46 46 N N/A 30.12 1020 10 16 N/A
10:15 am 10:15 Sunny 72 22 46 8 41 41 WNW 3 6 30.12 1020 10 16 N/A
10:35 am 10:35 Sunny 72 22 46 8 41 41 WNW 5 7 30.12 1020 10 16 N/A
10:55 am 10:55 Sunny 73 23 46 8 38 38 WNW 6 9 30.09 1019 10 16 N/A
11:15 am 11:15 Sunny 73 23 46 8 38 38 N N/A 30.09 1019 10 16 N/A
11:35 am 11:35 Sunny 75 24 50 10 41 41 W 5 7 30.09 1019 10 16 N/A
11:55 am 11:55 Sunny 77 25 50 10 39 39 SSW 8 13 30.09 1019 10 16 N/A
12:15 pm 12:15 Sunny 77 25 50 10 39 39 SSW 3 6 30.09 1019 10 16 N/A
12:35 pm 12:35 Sunny 77 25 50 10 39 39 W 5 7 30.09 1019 10 16 N/A
12:55 pm 12:55 Sunny 77 25 48 9 36 36 SSW 6 9 30.09 1019 10 16 N/A
1:15 pm 13:15 Sunny 79 26 48 9 34 34 N N/A 30.06 1018 10 16 N/A
1:35 pm 13:35 Sunny 81 27 48 9 32 32 W 5 7 30.09 1019 10 16 N/A
1:55 pm 13:55 Sunny 79 26 50 10 37 37 WNW 9 15 30.06 1018 10 16 N/A
2:15 pm 14:15 Sunny 81 27 46 8 30 30 N N/A 30.06 1018 10 16 N/A
2:35 pm 14:35 Sunny 81 27 48 9 32 32 S 3 6 30.06 1018 10 16 N/A
2:55 pm 14:55 Sunny 82 28 50 10 32 32 S 7 11 30.06 1018 10 16 N/A
3:15 pm 15:15 Sunny 81 27 48 9 32 32 SSE 5 7 30.06 1018 10 16 N/A
3:35 pm 15:35 Sunny 82 28 50 10 32 32 WSW 6 9 30.06 1018 10 16 N/A
3:55 pm 15:55 Sunny 82 28 50 10 32 32 SSW 5 7 30.03 1017 10 16 N/A
4:15 pm 16:15 Sunny 82 28 50 10 32 32 S 9 15 30.03 1017 10 16 N/A
4:35 pm 16:35 Sunny 82 28 50 10 32 32 SSW 7 11 30.03 1017 10 16 N/A
4:55 pm 16:55 Sunny 82 28 46 8 28 28 N N/A 30.03 1017 10 16 N/A
5:15 pm 17:15 Sunny 82 28 50 10 32 32 S 3 6 30.03 1017 10 16 N/A
5:35 pm 17:35 Sunny 82 28 50 10 32 32 SSW 3 6 30.03 1017 10 16 N/A
5:55 pm 17:55 Sunny 82 28 50 10 32 32 S 6 9 30.03 1017 10 16 N/A
6:15 pm 18:15 Sunny 82 28 52 11 35 35 SSW 7 11 30.03 1017 10 16 N/A
6:35 pm 18:35 Sunny 82 28 52 11 35 35 S 7 11 30.03 1017 10 16 N/A
6:55 pm 18:55 Sunny 81 27 54 12 39 39 S 7 11 30.03 1017 10 16 N/A
7:15 pm 19:15 Sunny 81 27 54 12 39 39 S 7 11 30.03 1017 10 16 N/A
7:35 pm 19:35 Sunny 79 26 54 12 42 42 SSW 6 9 30.03 1017 10 16 N/A
7:55 pm 19:55 Sunny 79 26 54 12 42 42 S 7 11 30.03 1017 10 16 N/A
8:15 pm 20:15 Sunny 77 25 54 12 44 44 SSW 6 9 30.03 1017 10 16 N/A
8:35 pm 20:35 Clear 75 24 54 12 47 47 S 8 13 30.03 1017 10 16 N/A
8:55 pm 20:55 Clear 73 23 54 12 50 50 SSW 6 9 30.03 1017 10 16 N/A
9:15 pm 21:15 Clear 73 23 54 12 50 50 S 7 11 30.03 1017 10 16 N/A
9:35 pm 21:35 Clear 72 22 54 12 53 53 S 5 7 30.03 1017 10 16 N/A
9:55 pm 21:55 Clear 72 22 54 12 53 53 SSW 3 6 30.03 1017 10 16 N/A
10:15 pm 22:15 Clear 72 22 54 12 53 53 S 5 7 30.03 1017 10 16 N/A
10:35 pm 22:35 Clear 70 21 54 12 57 57 S 6 9 30.03 1017 10 16 N/A
10:55 pm 22:55 Clear 70 21 55 13 60 60 S 6 9 30.03 1017 10 16 N/A
11:15 pm 23:15 Clear 70 21 55 13 60 60 S 6 9 30.03 1017 10 16 N/A
11:35 pm 23:35 Clear 68 20 55 13 64 64 SSW 3 6 30.03 1017 10 16 N/A
11:55 pm 23:55 Clear 68 20 55 13 64 64 S 5 7 30.00 1016 10 16 N/A

Powered by AerisWeather